Regional Weather Roundup
Issued by NWS

Home | Current Version | Previous Version | Text Only | Print | Product List | Glossary Off
Versions: 1 2 3 4 5 6 7 8 9 10 11 12 13 14 15 16 17 18 19 20 21 22 23 24 25 26 27 28 29 30 31 32 33 34 35 36 37 38 39 40 41 42 43 44 45 46 47 48 49 50

000
ASUS45 KCYS 010910
RWRWY

WYOMING REGIONAL WEATHER ROUNDUP
NATIONAL WEATHER SERVICE CHEYENNE WY
300 AM MDT WED JUL 01 2015

NOTE:  "FAIR" INDICATES FEW OR NO CLOUDS BELOW 12,000 FEET
WITH NO SIGNIFICANT WEATHER AND/OR OBSTRUCTIONS TO VISIBILITY.

WYZ001-011000-
YELLOWSTONE NATIONAL PARK

CITY           SKY/WX    TMP DP  RH WIND       PRES   REMARKS
LK YELLOWSTONE   N/A     49  45  86 CALM      30.35F
W YELLOWSTONE  NOT AVBL

$$
WYZ002>013-054>058-071-098>099-011000-
NORTHERN WYOMING

CITY           SKY/WX    TMP DP  RH WIND       PRES   REMARKS
JACKSON        FAIR      54  50  87 N5        30.25S
CODY           FAIR      64  46  52 CALM      30.14S
GREYBULL       FAIR      67  53  61 SW3       30.03S
WORLAND        FAIR      66  57  72 S7        30.04R
SHERIDAN       FAIR      63  50  62 CALM      30.07R
BUFFALO        FAIR      68  44  42 NW12      30.13S
GILLETTE       FAIR      62  49  62 CALM      30.06R
HULETT         PTSUNNY   63  54  72 S6        30.04R
NEWCASTLE      FAIR      63  55  77 N7        30.02S

$$
WYZ014>020-022>026-101>103-011000-
CENTRAL WYOMING

CITY           SKY/WX    TMP DP  RH WIND       PRES   REMARKS
BIG PINEY      FAIR      58  48  69 NW5       30.28S
PINEDALE       FAIR      54  48  82 N5        30.29S
DUBOIS         FAIR      54  43  66 NW10      30.29S
LANDER         FAIR      65  50  58 W8        30.15R
RIVERTON       FAIR      63  55  75 CALM      30.16R
CASPER         FAIR      60  51  72 SW6       30.13S
DOUGLAS        FAIR      60  56  86 N6        30.10S

$$
WYZ021-027>030-104>119-011000-
SOUTHERN WYOMING

CITY           SKY/WX    TMP DP  RH WIND       PRES   REMARKS
EVANSTON       FAIR      67  48  50 S8G20     30.30F
KEMMERER       FAIR      63  46  55 N5        30.32R
FORT BRIDGER   MOSUNNY   70  46  43 W13       30.33S
ROCK SPRINGS   FAIR      57  51  80 S8        30.25S
DIXON          FAIR      60  52  76 CALM      30.26R
RAWLINS        FAIR      57  55  93 NE3       30.25R
SARATOGA       PTSUNNY   55  50  82 CALM      30.27S
LARAMIE        FAIR      53  51  93 SE7       30.25F
CHEYENNE       FAIR      63  54  72 NW10      30.14F
TORRINGTON     FAIR      64  58  80 W7        30.00F
PINE BLUFFS    FAIR      59  55  88 CALM      30.08F

$$



USA.gov is the U.S. government's official web portal to all federal, state and local government web resources and services.